Regional Weather Roundup
Issued by NWS Albany, NY

Home | Current Version | Previous Version | Text Only | Print | Product List | Glossary On
Versions: 1 2 3 4 5 6 7 8 9 10 11 12 13 14 15 16 17 18 19 20 21 22 23 24 25 26 27
000
ASUS41 KALY 232210
RWRALY

NEW YORK STATE HOURLY WEATHER ROUNDUP
NATIONAL WEATHER SERVICE ALBANY NY
600 PM EDT TUE MAY 23 2017

NOTE: "FAIR" INDICATES FEW OR NO CLOUDS BELOW 12,000 FEET WITH NO
SIGNIFICANT WEATHER AND/OR NO OBSTRUCTIONS TO VISIBILITY.

NYZ032-033-038>043-046>054-057>066-NYZ062>081-082-084-232300-
EAST


CITY           SKY/WX    TMP DP  RH WIND       PRES   REMARKS
ALBANY         CLOUDY    71  47  42 VRB3      29.82F
GLENS FALLS    NOT AVBL
POUGHKEEPSIE   PTSUNNY   67  47  48 CALM      29.83F
NEWBURGH       PTSUNNY   64  52  63 CALM      29.86F
MONTGOMERY     CLOUDY    67  49  52 CALM      29.84F
WHITE PLAINS   CLOUDY    65  51  60 NW7       29.83F
ISLIP          CLOUDY    65  52  62 S7        29.84S
NEW YORK CITY  CLOUDY    70  43  37 CALM      29.83F
CENTRAL PARK   CLOUDY    68  46  45 CALM      29.86F
$$

NYZ005>009-017-018-044>046-055-056-232300-
CENTRAL


CITY           SKY/WX    TMP DP  RH WIND       PRES   REMARKS
FULTON         SUNNY     73  49  42 S5        29.80F
SYRACUSE       PTSUNNY   72  45  37 CALM      29.80F
ROME           SUNNY     71  49  45 W6        29.82F
ELMIRA         CLOUDY    72  45  37 SE6       29.79F
BINGHAMTON     CLOUDY    67  44  43 SE7       29.83F
MONTICELLO     CLOUDY    63  48  59 SE5       29.87F
$$

NYZ026>034-041>043-087-232300-
NORTH


CITY           SKY/WX    TMP DP  RH WIND       PRES   REMARKS
WATERTOWN      CLOUDY    69  50  50 SW7       29.80F
FORT DRUM      NOT AVBL
OGDENSBURG     FAIR      70  49  47 SW10G16   29.79F
MASSENA        CLOUDY    68  48  48 W13       29.80S
SARANAC LAKE   PTSUNNY   65  47  52 W5        29.81F
PLATTSBURGH    CLOUDY    64  51  62 CALM      29.79F
$$

NYZ001>004-010>016-019>021-085-232300-
WEST


CITY           SKY/WX    TMP DP  RH WIND       PRES   REMARKS
NIAGARA FALLS  SUNNY     75  45  34 CALM      29.77F
BUFFALO        PTSUNNY   75  46  35 CALM      29.78F
DUNKIRK        MOSUNNY   69  47  45 N7        29.78F
JAMESTOWN      MOSUNNY   70  45  40 SE5       29.79S
WELLSVILLE     CLOUDY    70  44  39 VRB3      29.82F
ROCHESTER      PTSUNNY   72  50  45 NE14      29.79F
PENN YAN       CLOUDY    72  46  39 VRB6      29.80F
$$

             KEY
       WCI = WIND CHILL INDEX
       VSB = VISIBILITY
       HX  = HEAT INDEX
$$




USA.gov is the U.S. government's official web portal to all federal, state and local government web resources and services.